Location: Omaha
(41.2590°N, 95.9380°W)
Time: 17:26:01
(UTC-06:00)

Vanguard 3 - All Passes

Search period start: 17 February 2018 00:00
Search period end: 27 February 2018 00:00
Orbit: 508 x 3264 km, 33.3° (Epoch: 17 February)

Date Brightness Start Highest point End Pass type
(mag) Time Alt. Az. Time Alt. Az. Time Alt. Az.
17 Feb - 15:39:34 10° S 15:40:32 11° SSE 15:41:28 10° SSE daylight
17 Feb - 17:48:20 10° SW 17:51:23 24° S 17:54:37 10° ESE daylight
17 Feb - 19:58:55 10° WSW 20:02:17 26° S 20:06:43 10° SE visible
17 Feb - 22:10:44 10° SW 22:13:48 15° SSW 22:17:39 10° SSE night (unlit)
18 Feb - 16:35:19 10° SW 16:38:15 19° SSE 16:40:57 10° ESE daylight
18 Feb - 18:45:55 10° WSW 18:49:03 26° S 18:52:43 10° ESE visible
18 Feb - 20:57:05 10° WSW 21:00:10 18° SSW 21:04:07 10° SSE visible
19 Feb - 15:22:18 10° SSW 15:24:59 15° SSE 15:27:17 10° SE daylight
19 Feb - 17:32:44 10° SW 17:35:55 25° S 17:39:04 10° ESE daylight
19 Feb - 19:43:49 10° WSW 19:46:47 21° S 19:50:26 10° SE visible
20 Feb - 14:09:47 10° S 14:11:30 11° SSE 14:13:02 10° SE daylight
20 Feb - 16:19:16 10° SW 16:22:45 22° S 16:25:44 10° ESE daylight
20 Feb - 18:30:33 10° WSW 18:33:35 24° S 18:36:52 10° SE visible
20 Feb - 20:42:36 10° SW 20:44:38 13° SSW 20:47:00 10° SSE visible
21 Feb - 15:05:35 10° SW 15:09:28 19° SSE 15:12:30 10° ESE daylight
21 Feb - 17:17:02 10° WSW 17:20:28 26° S 17:23:35 10° ESE daylight
21 Feb - 19:28:47 10° SW 19:31:17 17° SSW 19:34:07 10° SSE visible
22 Feb - 13:51:53 10° SSW 13:55:56 16° SSE 13:59:06 10° SE daylight
22 Feb - 16:03:10 10° SW 16:07:16 26° S 16:10:31 10° ESE daylight
22 Feb - 18:15:08 10° WSW 18:18:06 22° S 18:21:05 10° SE daylight
23 Feb - 12:38:43 10° S 12:42:08 13° SSE 12:44:58 10° SE daylight
23 Feb - 14:48:56 10° SW 14:53:57 25° S 14:57:33 10° ESE daylight
23 Feb - 17:01:17 10° WSW 17:04:59 27° S 17:08:09 10° SE daylight
23 Feb - 19:13:52 10° SW 19:15:44 13° SSW 19:17:42 10° SSE visible
24 Feb - 13:34:33 10° SSW 13:40:21 22° SSE 13:44:26 10° ESE daylight
24 Feb - 15:47:00 10° WSW 15:51:47 30° S 15:55:19 10° ESE daylight
24 Feb - 17:59:40 10° WSW 18:02:35 20° SSW 18:05:21 10° SE daylight
25 Feb - 12:20:22 10° SSW 12:26:27 18° SSE 12:30:54 10° ESE daylight
25 Feb - 14:32:18 10° SW 14:38:24 30° S 14:42:29 10° ESE daylight
25 Feb - 16:45:25 10° WSW 16:49:29 28° S 16:52:44 10° SE daylight
25 Feb - 18:59:29 10° SSW 19:00:08 10° SSW 19:00:47 10° SSW visible
26 Feb - 11:07:00 10° S 11:12:13 14° SSE 11:16:23 10° SE daylight
26 Feb - 13:17:22 10° SW 13:24:44 28° SSE 13:29:32 10° ESE daylight
26 Feb - 15:30:45 10° WSW 15:36:16 34° S 15:40:05 10° ESE daylight
26 Feb - 17:44:08 10° WSW 17:47:01 18° SSW 17:49:38 10° SSE daylight
